Regional Weather Roundup
Issued by NWS

Home | Current Version | Previous Version | Text Only | Print | Product List | Glossary On
Versions: 1 2 3 4 5 6 7 8 9 10 11 12 13 14 15 16 17 18 19 20 21 22 23 24 25 26 27 28 29 30 31 32 33 34 35 36 37 38 39 40 41 42 43 44 45 46 47 48 49 50
000
ASUS43 KTOP 252008
RWRKS

WEATHER ROUNDUP FOR KANSAS
NATIONAL WEATHER SERVICE GOODLAND KS
300 PM CDT SUN SEP 25 2016

NOTE:  "FAIR" INDICATES FEW OR NO CLOUDS BELOW 12,000 FEET WITH NO
SIGNIFICANT WEATHER AND/OR OBSTRUCTIONS TO VISIBILITY.

KSZ001>006-013>018-027>032-041>047-252100-
NORTHWEST KANSAS

CITY           SKY/WX    TMP DP  RH WIND       PRES   REMARKS
GOODLAND       SUNNY     71  35  26 N16G29    30.31F
HAYS           SUNNY     73  41  31 N18       30.23F
HILL CITY      SUNNY     74  39  28 N17G29    30.25F
RUSSELL        LGT RAIN  74  43  32 N17       30.20F
$$

KSZ061>065-074>080-084>089-252100-
SOUTHWEST KANSAS

CITY           SKY/WX    TMP DP  RH WIND       PRES   REMARKS
DODGE CITY     LGT RAIN  76  38  25 N21G26    30.26F
ELKHART          N/A     73  35  25 N13         N/A
GARDEN CITY    SUNNY     74  35  24 N22G30    30.27F
GREAT BEND     CLOUDY    72  46  40 N13       30.22F
LIBERAL        SUNNY     75  39  27 NE14G23   30.29F
PRATT          CLOUDY    68  46  44 N15       30.23S
$$

KSZ066>073-081>083-090>101-252100-
SOUTHEAST KANSAS

CITY           SKY/WX    TMP DP  RH WIND       PRES   REMARKS
CHANUTE        CLOUDY    62  58  86 N9        30.15S
COFFEYVILLE    LGT RAIN  64  62  93 N14       30.13S
HUTCHINSON     MOSUNNY   72  49  44 N13G22    30.20F
MEDICINE LODGE   N/A     70  48  45 N15G21      N/A
NEWTON         MOSUNNY  N/A N/A N/A N14       30.19F
PARSONS        CLOUDY    62  60  93 N13       30.14F
WICHITA INTL   CLOUDY    67  51  56 N16       30.19F
WICHITA JABRA  CLOUDY    66  53  63 N14       30.18F
WICHITA MCCONL CLOUDY    66  53  62 N13       30.19F
WINFIELD       CLOUDY    66  55  67 N14       30.18F
$$

KSZ007>012-019>026-033>040-048>060-102>105-252100-
NORTHEAST KANSAS

CITY           SKY/WX    TMP DP  RH WIND       PRES   REMARKS
CONCORDIA      MOSUNNY   74  47  38 NW14G22   30.18F
EMPORIA        MOSUNNY   66  53  63 N12       30.16F
LAWRENCE       CLOUDY    65  57  75 NW9       30.14F
MANHATTAN      PTSUNNY   70  50  49 VRB7      30.16F
MARYSVILLE     MOSUNNY   73  48  40 NW17G25   30.14F
OLATHE IND     CLOUDY    61  55  81 N12       30.14S
OLATHE EXE     CLOUDY    61  55  81 NW7       30.13S
SALINA         MOSUNNY   73  50  44 N15       30.18F
TOPEKA BILLARD MOSUNNY   67  54  63 NW8       30.14F
TOPEKA FORBES  CLOUDY    68  54  60 NW13      30.14F
$$




USA.gov is the U.S. government's official web portal to all federal, state and local government web resources and services.